When you browse on this site, cookies collect data to enhance your experience and personalize the content and advertising you see.
Visit our Privacy Policy to learn more. By continuing to use the site, you agree to this use of cookies and data.
  • In Austria
  • List of Countries
  • For 7 days
  • Water Temperature
  • Satellite Maps
  • Weather Map
  • News
  • Weather Widgets
  • user-avatar
    Login

    Hourly Weather Darwin

    Today, 17 July, Wednesday

    Time Temperature Precipitation Wind Pressure Humidity
    00:00 +20°C° 0 mm 5 mps 760 mmHg 27%
    01:00 +20°C° 0 mm 6 mps 760 mmHg 31%
    02:00 +19°C° 0 mm 6 mps 760 mmHg 34%
    03:00 +19°C° 0 mm 6 mps 760 mmHg 35%
    04:00 +19°C° 0 mm 6 mps 760 mmHg 39%
    05:00 +17°C° 0 mm 6 mps 760 mmHg 42%
    06:00 +17°C° 0 mm 6 mps 760 mmHg 45%
    07:00 +20°C° 0 mm 7 mps 760 mmHg 41%
    08:00 +22°C° 0 mm 7 mps 761 mmHg 37%
    09:00 +23°C° 0 mm 6 mps 761 mmHg 32%
    10:00 +27°C° 0 mm 5 mps 761 mmHg 28%
    11:00 +29°C° 0 mm 5 mps 760 mmHg 24%
    12:00 +32°C° 0 mm 4 mps 759 mmHg 20%
    13:00 +33°C° 0 mm 4 mps 759 mmHg 19%
    14:00 +34°C° 0 mm 3 mps 758 mmHg 18%
    15:00 +35°C° 0 mm 3 mps 757 mmHg 18%
    16:00 +31°C° 0 mm 3 mps 757 mmHg 27%
    17:00 +28°C° 0 mm 2 mps 757 mmHg 36%
    18:00 +25°C° 0 mm 2 mps 757 mmHg 45%
    19:00 +24°C° 0 mm 1 mps 758 mmHg 49%
    20:00 +22°C° 0 mm 1 mps 759 mmHg 53%
    21:00 +21°C° 0 mm 1 mps 759 mmHg 57%
    22:00 +21°C° 0 mm 1 mps 759 mmHg 55%
    23:00 +20°C° 0 mm 2 mps 759 mmHg 53%

    Tomorrow, 18 July, Thursday

    Time Temperature Precipitation Wind Pressure Humidity
    00:00 +19°C° 0 mm 2 mps 760 mmHg 52%
    01:00 +19°C° 0 mm 2 mps 759 mmHg 55%
    02:00 +19°C° 0 mm 3 mps 759 mmHg 59%
    03:00 +19°C° 0 mm 3 mps 759 mmHg 63%
    04:00 +18°C° 0 mm 3 mps 759 mmHg 63%
    05:00 +17°C° 0 mm 4 mps 759 mmHg 63%
    06:00 +15°C° 0 mm 4 mps 759 mmHg 63%
    07:00 +18°C° 0 mm 4 mps 760 mmHg 55%
    08:00 +20°C° 0 mm 5 mps 760 mmHg 48%
    09:00 +22°C° 0 mm 5 mps 761 mmHg 41%
    10:00 +26°C° 0 mm 5 mps 760 mmHg 33%
    11:00 +29°C° 0 mm 4 mps 760 mmHg 26%
    12:00 +33°C° 0 mm 4 mps 759 mmHg 18%
    13:00 +34°C° 0 mm 4 mps 759 mmHg 18%
    14:00 +35°C° 0 mm 5 mps 758 mmHg 17%
    15:00 +36°C° 0 mm 5 mps 757 mmHg 17%
    16:00 +33°C° 0 mm 5 mps 757 mmHg 26%
    17:00 +29°C° 0 mm 5 mps 758 mmHg 35%
    18:00 +26°C° 0 mm 4 mps 758 mmHg 45%
    19:00 +23°C° 0 mm 4 mps 758 mmHg 56%
    20:00 +22°C° 0 mm 4 mps 759 mmHg 67%
    21:00 +20°C° 0 mm 4 mps 760 mmHg 78%
    22:00 +20°C° 0 mm 3 mps 760 mmHg 82%
    23:00 +20°C° 0 mm 3 mps 760 mmHg 87%

    Day after tomorrow, 19 July, Friday

    Time Temperature Precipitation Wind Pressure Humidity
    00:00 +19°C° 0 mm 3 mps 760 mmHg 92%
    01:00 +19°C° 0 mm 3 mps 759 mmHg 93%
    02:00 +19°C° 0 mm 3 mps 759 mmHg 94%
    03:00 +19°C° 0 mm 3 mps 759 mmHg 96%
    04:00 +19°C° 0 mm 4 mps 759 mmHg 95%
    05:00 +18°C° 0 mm 4 mps 759 mmHg 94%
    06:00 +18°C° 0 mm 4 mps 759 mmHg 94%
    07:00 +20°C° 0 mm 4 mps 760 mmHg 80%
    08:00 +22°C° 0 mm 5 mps 760 mmHg 67%
    09:00 +25°C° 0 mm 5 mps 760 mmHg 54%
    10:00 +27°C° 0 mm 5 mps 760 mmHg 44%
    11:00 +30°C° 0 mm 4 mps 760 mmHg 35%
    12:00 +34°C° 0 mm 4 mps 759 mmHg 25%
    13:00 +35°C° 0 mm 4 mps 759 mmHg 24%
    14:00 +36°C° 0 mm 5 mps 758 mmHg 22%
    15:00 +37°C° 0 mm 5 mps 757 mmHg 21%
    16:00 +34°C° 0 mm 5 mps 758 mmHg 30%
    17:00 +30°C° 0 mm 4 mps 758 mmHg 39%
    18:00 +27°C° 0 mm 3 mps 758 mmHg 49%
    19:00 +25°C° 0 mm 3 mps 758 mmHg 53%
    20:00 +24°C° 0 mm 3 mps 759 mmHg 58%
    21:00 +22°C° 0 mm 3 mps 760 mmHg 62%
    22:00 +21°C° 0 mm 3 mps 760 mmHg 69%
    23:00 +20°C° 0 mm 2 mps 760 mmHg 75%

    20 July, Saturday

    Time Temperature Precipitation Wind Pressure Humidity
    00:00 +20°C° 0 mm 2 mps 760 mmHg 82%
    01:00 +20°C° 0 mm 2 mps 760 mmHg 85%
    02:00 +20°C° 0 mm 2 mps 760 mmHg 88%
    03:00 +19°C° 0 mm 2 mps 760 mmHg 91%
    04:00 +19°C° 0 mm 2 mps 760 mmHg 93%
    05:00 +19°C° 0 mm 3 mps 760 mmHg 94%
    06:00 +19°C° 0 mm 3 mps 760 mmHg 95%
    07:00 +21°C° 0 mm 3 mps 760 mmHg 82%
    08:00 +23°C° 0 mm 4 mps 760 mmHg 69%
    09:00 +26°C° 0 mm 4 mps 761 mmHg 56%
    10:00 +28°C° 0 mm 4 mps 760 mmHg 45%
    11:00 +32°C° 0 mm 4 mps 759 mmHg 35%
    12:00 +35°C° 0 mm 3 mps 759 mmHg 24%
    13:00 +35°C° 0 mm 4 mps 758 mmHg 22%
    14:00 +36°C° 0 mm 4 mps 757 mmHg 20%
    15:00 +37°C° 0 mm 5 mps 757 mmHg 19%
    16:00 +34°C° 0 mm 4 mps 757 mmHg 28%
    17:00 +30°C° 0 mm 3 mps 757 mmHg 38%
    18:00 +27°C° 0 mm 3 mps 757 mmHg 48%
    19:00 +25°C° 0 mm 3 mps 758 mmHg 57%
    20:00 +24°C° 0 mm 3 mps 758 mmHg 66%
    21:00 +21°C° 0 mm 4 mps 759 mmHg 74%
    22:00 +21°C° 0 mm 4 mps 759 mmHg 80%
    23:00 +20°C° 0 mm 3 mps 759 mmHg 86%

    21 July, Sunday

    Time Temperature Precipitation Wind Pressure Humidity
    00:00 +20°C° 0 mm 3 mps 759 mmHg 92%
    01:00 +20°C° 0 mm 3 mps 759 mmHg 93%
    02:00 +20°C° 0 mm 3 mps 759 mmHg 94%
    03:00 +20°C° 0 mm 3 mps 759 mmHg 95%
    04:00 +20°C° 0 mm 3 mps 759 mmHg 95%
    05:00 +19°C° 0 mm 4 mps 759 mmHg 95%
    06:00 +19°C° 0 mm 4 mps 759 mmHg 95%
    07:00 +21°C° 0 mm 4 mps 759 mmHg 84%
    08:00 +23°C° 0 mm 4 mps 759 mmHg 72%
    09:00 +25°C° 0 mm 4 mps 760 mmHg 61%
    10:00 +28°C° 0 mm 4 mps 759 mmHg 47%
    11:00 +32°C° 0 mm 4 mps 759 mmHg 33%
    12:00 +35°C° 0 mm 4 mps 758 mmHg 19%
    13:00 +36°C° 0 mm 4 mps 758 mmHg 18%
    14:00 +36°C° 0 mm 5 mps 757 mmHg 17%
    15:00 +37°C° 0 mm 5 mps 756 mmHg 16%
    16:00 +34°C° 0 mm 5 mps 756 mmHg 24%
    17:00 +30°C° 0 mm 4 mps 756 mmHg 32%
    18:00 +27°C° 0 mm 4 mps 756 mmHg 39%
    19:00 +25°C° 0 mm 3 mps 757 mmHg 45%
    20:00 +22°C° 0 mm 3 mps 757 mmHg 51%
    21:00 +20°C° 0 mm 2 mps 758 mmHg 58%
    22:00 +20°C° 0 mm 2 mps 758 mmHg 61%
    23:00 +19°C° 0 mm 2 mps 758 mmHg 65%

    22 July, Monday

    Time Temperature Precipitation Wind Pressure Humidity
    00:00 +18°C° 0 mm 2 mps 759 mmHg 69%
    01:00 +18°C° 0 mm 2 mps 758 mmHg 71%
    02:00 +18°C° 0 mm 2 mps 758 mmHg 74%
    03:00 +18°C° 0 mm 3 mps 758 mmHg 76%
    04:00 +18°C° 0 mm 3 mps 758 mmHg 82%
    05:00 +18°C° 0 mm 2 mps 758 mmHg 87%
    06:00 +18°C° 0 mm 2 mps 759 mmHg 92%
    07:00 +20°C° 0 mm 3 mps 759 mmHg 82%
    08:00 +22°C° 0 mm 3 mps 759 mmHg 71%
    09:00 +26°C° 0 mm 3 mps 760 mmHg 60%
    10:00 +28°C° 0 mm 3 mps 759 mmHg 47%
    11:00 +31°C° 0 mm 2 mps 759 mmHg 35%
    12:00 +35°C° 0 mm 2 mps 758 mmHg 22%
    13:00 +35°C° 0 mm 2 mps 758 mmHg 21%
    14:00 +35°C° 0 mm 3 mps 757 mmHg 20%
    15:00 +36°C° 0 mm 3 mps 756 mmHg 19%
    16:00 +33°C° 0 mm 3 mps 756 mmHg 29%
    17:00 +29°C° 0 mm 3 mps 757 mmHg 40%
    18:00 +25°C° 0 mm 2 mps 757 mmHg 51%
    19:00 +24°C° 0 mm 2 mps 757 mmHg 63%
    20:00 +23°C° 0 mm 2 mps 758 mmHg 75%
    21:00 +20°C° 0 mm 2 mps 758 mmHg 87%
    22:00 +20°C° 0 mm 2 mps 759 mmHg 88%
    23:00 +19°C° 0 mm 2 mps 759 mmHg 90%
    Show more